星链-33935 (STARLINK-33935)

导读

STARLINK-33935是美国太空探索技术公司SpaceX于2025年5月2日发射的星链(Starlink)低轨通信卫星,隶属于全球规模最大的卫星互联网星座项目。星链项目计划部署约4.2万颗低轨卫星,旨在为全球提供高速低延迟互联网服务,尤其填补偏远地区网络覆盖空白。该卫星运行于近地轨道,将助力星链扩展全球网络接入能力,推动缩小数字鸿沟,同时也持续引发太空拥堵与天文观测影响的讨论。

Basic Information
目录编号:
63791
目录名称:
STARLINK-33935
国际标识:
2025-091S
轨道中心:
EARTH
卫星名称:
星链-33935
卫星全名:
星链-33935 (STARLINK-33935)
卫星状态:
在轨 (已飞行490 天)
发射日期:
2025-05-02 UTC
国别 :
美国 (US)
星等 :
--
Orbit Information
数据来源 国际轨道数据
星历时间: 2026-09-04T00:55:54+0800
13小时前
查看轨道信息
半长轴: 6861.042km
偏心率: 0.0001258
轨道倾角: 42.998°
近地点辐角 225.912°
升交点赤经 127.513°
平近点角 134.163°
近地点: 482.041km
远地点: 483.769km
周期: 94.264分钟
每日圈数: 15.276282
Detailed Information
固有亮度:
5
最大亮度:
2.5
卫星平台:
Starlink V1.0
覆盖范围:
全球
运营商:
太空探索技术公司
运营商所在国:
美国
制造商(研发单位):
太空探索技术公司
制造商所在国:
美国
使用方式:
暂无
Satellite Introduction
Starlink 计划是 SpaceX 推出的全球卫星互联网项目,通过发射低轨道卫星,为全球尤其是偏远地区提供高速、低延迟的互联网服务。自 2019 年起,Starlink 已部署数千颗卫星,旨在缩小全球数字鸿沟,推动互联网普及。该项目还为军事、航空等行业提供通信支持,带来广泛经济效益。
2D Orbit Map
3D Orbit Map
Orbit Altitude Analysis Chart
Orbit Inclination Analysis Chart
Orbit Comprehensive Analysis Chart
View Comprehensive Chart
Conjunction Data List
Event ID Objects TCA Miss Dist (km) Collision Risk Probability Collision Risk Index (CRI) Action
CDM_260903-011005-321606-379121
2026-09-03T
01:10:19+0000
1.214 km
极远距离
1.350629E-5 中风险 0.58
CDM_260904-220406-187206-379122
OBJECT D (61872)
2026-09-04T
22:04:27+0000
2.205 km
极远距离
2.208134E-6 低风险 0.42
CDM_260903-015705-321606-379121
2026-09-03T
01:57:27+0000
2.431 km
极远距离
1.811764E-6 低风险 0.4